Location: Newark
(54.6833°N, 25.3167°E)
Time: 16:30:26
(UTC+00:00)

ISS - Visible Passes

Search period start: 26 September 2020 00:00
Search period end: 06 October 2020 00:00
Orbit: 419 x 421 km, 51.6° (Epoch: 27 September)

Date Brightness Start Highest point End Pass type
(mag) Time Alt. Az. Time Alt. Az. Time Alt. Az.
26 Sep -3.1 16:37:25 10° WSW 16:40:38 43° SSE 16:43:52 10° E visible
26 Sep -3.3 18:13:56 10° W 18:17:09 47° S 18:17:09 47° S visible
27 Sep -3.3 17:26:43 10° W 17:30:01 50° S 17:31:40 25° ESE visible
27 Sep -1.2 19:03:30 10° W 19:04:38 17° WSW 19:04:38 17° WSW visible
28 Sep -3.2 16:39:32 10° WSW 16:42:48 50° S 16:46:07 10° ESE visible
28 Sep -2.7 18:16:13 10° W 18:19:08 35° SSW 18:19:08 35° SSW visible
29 Sep -3.0 17:28:57 10° W 17:32:09 41° SSW 17:33:38 25° SE visible
29 Sep -0.8 19:06:07 10° WSW 19:06:36 12° WSW 19:06:36 12° WSW visible
30 Sep -3.1 16:41:41 10° W 16:44:57 47° S 16:48:09 10° ESE visible
30 Sep -1.9 18:18:37 10° W 18:21:07 22° SSW 18:21:07 22° SSW visible
01 Oct -2.3 17:31:14 10° W 17:34:11 28° SSW 17:35:40 20° SSE visible
02 Oct -2.5 16:43:53 10° W 16:47:00 35° SSW 16:50:07 10° SE visible
02 Oct -1.1 18:21:36 10° WSW 18:23:08 13° SW 18:23:14 13° SW visible
03 Oct -1.4 17:33:46 10° WSW 17:36:03 17° SSW 17:37:52 12° S visible
04 Oct -1.7 16:46:13 10° W 16:48:55 22° SSW 16:51:36 10° SSE visible
